CZ-6A DEB

Satellite information

Favourite Embed

Satellite Type and Status

DEBRISIN ORBIT

Key statistics

Satellite CZ-6A DEB at a glance.

Uptime

494

Days in orbit

Revolutions

≈ 14.3

Per day

Orbit

LEO

Low Earth Orbit

Inclination

89.0

Latest

Satellite identification and parameters

Extended collection of information and parameters for CZ-6A DEB.

Object identification

Identified? True

Debris? True

Object name: CZ-6A DEB

International designator: 2024-140AAV

Object number (NORAD): 61487

Object ID (CCSDS): 61487

Country: PEOPLES REPUBLIC OF CHINA (PRC)

Current information (Y/N): Y

RCS size: SMALL

Orbital parameters

Period: 100.958 minutes

Inclination: 89.0111 deg

SMA: 7182.139 km

Apoapsis: 832.46 km

Periapsis: 775.548 km

RAAN: 296.0652 deg

Eccentricy: 0.003962

Argument of periapsis: 89.6961 deg

Mean anomaly: 270.8772 deg

Mean motion: 14.26336712 rev/day

Mean motion (dot): 0.0000554 rev/day2

B* drag term: 0.0022824 1/REarth

Two-line elements (TLE)

Creation date: Dec. 12, 2025, 7:26 a.m.

Reference frame: TEME

Reference center: EARTH

Epoch: Dec. 11, 2025, 8:31 p.m. UTC

TLE line 0: 0 CZ-6A DEB

TLE line 1: 1 61487U 24140AAV 25345.85535044 .00005540 00000-0 22824-2 0 9994

TLE line 2: 2 61487 89.0111 296.0652 0039620 89.6961 270.8772 14.26336712 65163

Live tracking on map

Real-time ground track for satellite CZ-6A DEB.

In-orbit conjunctions

A list of the most updated potential collisions computed for object CZ-6A DEB.

Target Orbit TCA Probability of collision Miss distance Type
DELTA 2 R/B(1) LEO 2025-12-06 02:38:22 0.0003202977 232.0 (m) ROCKET BODY
NOAA 16 DEB SSO 2025-03-15 16:40:38 0.0001056418 40.0 (m) DEBRIS
DELTA 1 DEB SSO 2024-12-26 17:10:24 0.0001065129 383.0 (m) DEBRIS
METEOR 1-5 DEB LEO 2024-12-19 08:57:27 0.001595228 72.0 (m) DEBRIS

Associated space launch

18 Low Earth Orbit communication satellites with Ku, Q and V band payloads for the G60 constellation operated by Shanghai Spacecom Satellite Technology (SSST) with funding backed by the Shanghai local government. Initial constellation will consist of 1296 satellites by 2027 with long term plans to expand it to 12000 satellites.

CZ-6A DEB was lifted into orbit during the mission ‘Long March 6A | G60 Polar Group 01’, on board a Long March 6A space rocket.

The launch took place on Aug. 6, 2024, 6:42 a.m. from Launch Complex 9A.

For more information about the launch, click the button.

Launch to space Long March 6A | G60 Polar Group 01
Long March 6A | G60 Polar Group 01

Agency: N/A

Status: Launch Successful

Launch date: Aug. 6, 2024, 6:42 a.m. UTC

Rocket: Long March 6A

Launch pad: Launch Complex 9A

Location: Taiyuan Satellite Launch Center, People's Republic of China

...

Latest news about this satellite

News about space launch
Brightness of first Chinese broadband constellation satellites alarms astronomers

The first satellites of a Chinese broadband constellation are significantly brighter than those of Western systems, posing a new challenge for astronomers.

News about space launch
Chinese rocket stage breaks up into cloud of more than 700 pieces of space debris

HELSINKI — A Chinese Long March 6A rocket’s upper stage has fragmented into a cloud of over 700 pieces of space debris, adding to concerns about long-term orbital safety. China […]

News about space launch
China's Thousand Sails Megaconstellation Kicks Off with Dangerous Debris Field

China's Thousand Sails Megaconstellation Kicks Off with Dangerous Debris Field


Newsletter sign-up

Weekly statistics, charts and insights to help you stay on top of the space industry.